"Pseudo-MPEC" for P12oEEZ

Created 2026 Jul 26 18:35:10 UT using Find_Orb

Click here for an explanation of pseudo-MPECs

 
 Astrometry: 
     P12oEEZ*0C2026 07 25.57381623 24 07.494-07 37 02.32   ~7PJZ 21.93wXNEOCPF51
     P12oEEZ 0C2026 07 25.58445323 24 09.195-07 37 21.89   ~7PJZ 21.71wXNEOCPF51
     P12oEEZ 0C2026 07 25.59507223 24 10.902-07 37 41.58   ~7PJZ 21.62wXNEOCPF51
     P12oEEZ 0C2026 07 25.60587423 24 12.632-07 38 01.14   ~7PJZ 21.68wXNEOCPF51

Station data:
(F51) Pan-STARRS 1, Haleakala  (N20.707234 W156.255910)  US/Hawaii.
   Observers J. Herman, T. Lowe, P. Minguez, A. Schultz, I. Smith. Measurers
   K. Chambers, T. de Boer, J. Fairlamb, H. Gao, M. Huber, C.-C. Lin, E.
   Magnier, Y. Ramanjooloo, R. Wainscoat, R. Weryk. 1.8-m Ritchey-Chrétien +
   CCD.

Orbital elements:  P12oEEZ
   Perihelion 2026 Sep 2.743934 +/- 36.7 TT = 17:51:15.9 (JD 2461286.243934)
Epoch 2026 Jul 26.0 TT = JDT 2461247.5   Earth MOID: 0.0402   Ju: 0.5834
M 359.927346500 +/- 39              Ve: 0.0263   Me: 0.0273   Ma: 0.0419
n   0.001875222 +/-                 Peri.  345.104870 +/- 90     AutoNEOCP
a  65.12796399 +/-                  Node   131.874384 +/- 40
e   0.99963184 +/- 0.259            Incl.   56.876737 +/- 19
P 525.59503                H 22.25  G  0.15   U 11.0  SR
q 0.023977218 +/- 0.47    Q 130.2319507 +/- 29.8          (J2000 ecliptic)
From 4 observations 2026 July 25 (46.2 min); mean residual 0".08
Residuals in arcseconds: 
260725 F51  .01-  .06+    260725 F51  .06+  .18-    
260725 F51  .01-  .00     260725 F51  .03-  .12+    

Ephemerides (geocentric):
Date (UTC) HH   RA             Dec           delta  r     elong  mag " sig PA
---- --------  ------------   ------------  ------ ------ -----  --- --------
2026 07 26 19  23 28 00.190   -08 19 01.45  .26774 1.2166 133.9 21.3 5821  80
2026 07 26 20  23 28 09.116   -08 20 40.11  .26656 1.2157 133.9 21.3 7512  80
2026 07 26 21  23 28 18.115   -08 22 19.67  .26539 1.2148 133.9 21.3 170'  80
2026 07 26 22  23 28 27.188   -08 24 00.13  .26421 1.2139 133.9 21.3 251'  81
2026 07 26 23  23 28 36.336   -08 25 41.52  .26303 1.2130 134.0 21.3 401'  83
2026 07 27 00  23 28 45.561   -08 27 23.84  .26186 1.2121 134.0 21.3 626'  88
2026 07 27 01  23 28 54.862   -08 29 07.11  .26068 1.2112 134.0 21.3 808'  91
2026 07 27 02  23 29 04.242   -08 30 51.34  .25951 1.2102 134.0 21.2 908'  93
2026 07 27 03  23 29 13.702   -08 32 36.53  .25833 1.2093 134.0 21.2 963'  93
2026 07 27 04  23 29 23.242   -08 34 22.71  .25716 1.2084 134.0 21.2 996'  94
2026 07 27 05  23 29 32.863   -08 36 09.89  .25598 1.2075 134.0 21.2  17d  94
2026 07 27 06  23 29 42.568   -08 37 58.08  .25481 1.2066 134.0 21.2  17d  94
2026 07 27 07  23 29 52.356   -08 39 47.28  .25363 1.2057 134.1 21.2  17d  94
2026 07 27 08  23 30 02.230   -08 41 37.53  .25246 1.2048 134.1 21.2  18d  95
2026 07 27 09  23 30 12.190   -08 43 28.82  .25129 1.2039 134.1 21.2  18d  95
2026 07 27 10  23 30 22.238   -08 45 21.18  .25011 1.2030 134.1 21.2  18d  95
2026 07 27 11  23 30 32.374   -08 47 14.62  .24894 1.2021 134.1 21.1  18d  95
2026 07 27 12  23 30 42.601   -08 49 09.15  .24777 1.2011 134.1 21.1  18d  95
2026 07 27 13  23 30 52.920   -08 51 04.78  .24660 1.2002 134.1 21.1  18d  95
2026 07 27 14  23 31 03.332   -08 53 01.54  .24542 1.1993 134.1 21.1  18d  95
2026 07 27 15  23 31 13.837   -08 54 59.44  .24425 1.1984 134.1 21.1  18d  95
2026 07 27 16  23 31 24.439   -08 56 58.50  .24308 1.1975 134.1 21.1  18d  95
2026 07 27 17  23 31 35.137   -08 58 58.72  .24191 1.1966 134.1 21.1  18d  95
2026 07 27 18  23 31 45.935   -09 01 00.13  .24074 1.1957 134.2 21.1  18d  95
2026 07 27 19  23 31 56.832   -09 03 02.74  .23957 1.1948 134.2 21.1  18d  95
2026 07 27 20  23 32 07.830   -09 05 06.57  .23840 1.1938 134.2 21.0  18d  94
2026 07 27 21  23 32 18.932   -09 07 11.64  .23723 1.1929 134.2 21.0  18d  94
2026 07 27 22  23 32 30.139   -09 09 17.96  .23606 1.1920 134.2 21.0  19d  93
2026 07 27 23  23 32 41.461   -09 11 25.51  .23489 1.1911 134.2 21.0  19d  93
2026 07 28 00  23 32 52.911   -09 13 34.25  .23372 1.1902 134.2 21.0  20d  91
2026 07 28 01  23 33 04.492   -09 15 44.20  .23255 1.1893 134.2 21.0  21d  90
2026 07 28 02  23 33 16.205   -09 17 55.39  .23138 1.1884 134.2 21.0  23d  90
2026 07 28 03  23 33 28.052   -09 20 07.82  .23021 1.1874 134.2 21.0  25d  90
2026 07 28 04  23 33 40.036   -09 22 21.52  .22904 1.1865 134.2 20.9  26d  91
2026 07 28 05  23 33 52.158   -09 24 36.51  .22787 1.1856 134.2 20.9  27d  92
2026 07 28 06  23 34 04.421   -09 26 52.80  .22670 1.1847 134.2 20.9  28d  92
2026 07 28 07  23 34 16.828   -09 29 10.42  .22553 1.1838 134.2 20.9  28d  93
2026 07 28 08  23 34 29.380   -09 31 29.38  .22436 1.1828 134.2 20.9  29d  93
2026 07 28 09  23 34 42.070   -09 33 49.75  .22319 1.1819 134.2 20.9  29d  93
2026 07 28 10  23 34 54.889   -09 36 11.61  .22202 1.1810 134.2 20.9  29d  94
2026 07 28 11  23 35 07.839   -09 38 34.97  .22085 1.1801 134.2 20.9  29d  94
2026 07 28 12  23 35 20.923   -09 40 59.87  .21969 1.1791 134.2 20.8  30d  94
2026 07 28 13  23 35 34.141   -09 43 26.32  .21852 1.1782 134.2 20.8  30d  94
2026 07 28 14  23 35 47.497   -09 45 54.34  .21735 1.1773 134.2 20.8  30d  94
2026 07 28 15  23 36 00.993   -09 48 23.97  .21618 1.1764 134.2 20.8  30d  94
2026 07 28 16  23 36 14.632   -09 50 55.22  .21502 1.1754 134.2 20.8  30d  94
2026 07 28 17  23 36 28.414   -09 53 28.12  .21385 1.1745 134.2 20.8  30d  94
2026 07 28 18  23 36 42.344   -09 56 02.70  .21268 1.1736 134.2 20.8  30d  94